| time (UTC) | temp F | wind direction | speed MPH | gust MPH | rain 1hr in | rain 24hr in | rain mn in | humidity % | barometer mb |
| 20260903214547 | 81 | 316 | 0.0 | 10.0 | 0.00 | 0.00 | 0.00 | 32 | 1012.1 |
| 20260903213045 | 82 | 294 | 0.0 | 11.0 | 0.00 | 0.00 | 0.00 | 26 | 1012.3 |
| 20260903211543 | 83 | 304 | 0.0 | 12.0 | 0.00 | 0.00 | 0.00 | 22 | 1012.4 |
| 20260903210039 | 83 | 327 | 0.0 | 13.0 | 0.00 | 0.00 | 0.00 | 21 | 1012.4 |
| 20260903204538 | 83 | 320 | 0.0 | 8.0 | 0.00 | 0.00 | 0.00 | 21 | 1012.7 |
| 20260903203037 | 83 | 327 | 0.0 | 8.0 | 0.00 | 0.00 | 0.00 | 20 | 1012.7 |
| 20260903201534 | 83 | 330 | 0.0 | 12.0 | 0.00 | 0.00 | 0.00 | 19 | 1012.9 |
| 20260903200043 | 83 | 317 | 2.0 | 12.0 | 0.00 | 0.00 | 0.00 | 19 | 1013.0 |
| 20260903194540 | 82 | 360 | 0.0 | 4.0 | 0.00 | 0.00 | 0.00 | 19 | 1013.1 |
| 20260903193027 | 82 | 308 | 0.0 | 13.0 | 0.00 | 0.00 | 0.00 | 18 | 1013.4 |
| 20260903191525 | 82 | 313 | 0.0 | 9.0 | 0.00 | 0.00 | 0.00 | 18 | 1013.3 |
| 20260903190026 | 82 | 283 | 0.0 | 11.0 | 0.00 | 0.00 | 0.00 | 17 | 1013.4 |
| 20260903184524 | 81 | 300 | 0.0 | 11.0 | 0.00 | 0.00 | 0.00 | 15 | 1013.7 |
| 20260903183036 | 81 | 266 | 1.0 | 12.0 | 0.00 | 0.00 | 0.00 | 14 | 1013.8 |
| 20260903181526 | 80 | 349 | 0.0 | 8.0 | 0.00 | 0.00 | 0.00 | 14 | 1014.0 |
| 20260903180019 | 80 | 322 | 0.0 | 12.0 | 0.00 | 0.00 | 0.00 | 14 | 1013.9 |
| 20260903174521 | 79 | 313 | 0.0 | 9.0 | 0.00 | 0.00 | 0.00 | 15 | 1014.0 |
| 20260903173013 | 79 | 287 | 0.0 | 4.0 | 0.00 | 0.00 | 0.00 | 16 | 1014.0 |
| 20260903171517 | 78 | 315 | 0.0 | 5.0 | 0.00 | 0.00 | 0.00 | 17 | 1013.7 |
| 20260903170013 | 76 | 296 | 0.0 | 5.0 | 0.00 | 0.00 | 0.00 | 18 | 1013.6 |
| 20260903164502 | 75 | 347 | 0.0 | 0.0 | 0.00 | 0.00 | 0.00 | 21 | 1013.5 |
| 20260903163057 | 73 | 332 | 0.0 | 0.0 | 0.00 | 0.00 | 0.00 | 25 | 1013.4 |
| 20260903161611 | 70 | 81 | 0.0 | 0.0 | 0.00 | 0.00 | 0.00 | 30 | 1013.4 |
| 20260903160049 | 67 | 87 | 0.0 | 0.0 | 0.00 | 0.00 | 0.00 | 33 | 1013.5 |
| 20260903154544 | 62 | 89 | 0.0 | 0.0 | 0.00 | 0.00 | 0.00 | 38 | 1013.6 |
| 20260903153039 | 57 | 89 | 0.0 | 0.0 | 0.00 | 0.00 | 0.00 | 43 | 1013.5 |
| 20260903151538 | 54 | 103 | 0.0 | 0.0 | 0.00 | 0.00 | 0.00 | 41 | 1013.7 |
| 20260903150031 | 52 | 103 | 0.0 | 0.0 | 0.00 | 0.00 | 0.00 | 40 | 1013.9 |
| 20260903144528 | 51 | 103 | 0.0 | 0.0 | 0.00 | 0.00 | 0.00 | 39 | 1013.7 |
| 20260903143036 | 49 | 103 | 0.0 | 0.0 | 0.00 | 0.00 | 0.00 | 38 | 1013.7 |
| 20260903141525 | 48 | 103 | 0.0 | 0.0 | 0.00 | 0.00 | 0.00 | 35 | 1013.4 |
| 20260903140025 | 47 | 103 | 0.0 | 0.0 | 0.00 | 0.00 | 0.00 | 33 | 1013.1 |
| 20260903134527 | 47 | 103 | 0.0 | 0.0 | 0.00 | 0.00 | 0.00 | 31 | 1012.9 |
| 20260903133024 | 47 | 103 | 0.0 | 0.0 | 0.00 | 0.00 | 0.00 | 30 | 1012.9 |
| 20260903131524 | 47 | 103 | 0.0 | 0.0 | 0.00 | 0.00 | 0.00 | 29 | 1012.8 |
| 20260903130022 | 47 | 103 | 0.0 | 0.0 | 0.00 | 0.00 | 0.00 | 29 | 1012.6 |
| 20260903124544 | 47 | 103 | 0.0 | 0.0 | 0.00 | 0.00 | 0.00 | 29 | 1012.7 |
| 20260903123020 | 48 | 103 | 0.0 | 0.0 | 0.00 | 0.00 | 0.00 | 28 | 1012.6 |
| 20260903121537 | 48 | 103 | 0.0 | 0.0 | 0.00 | 0.00 | 0.00 | 28 | 1012.7 |
| 20260903120018 | 48 | 103 | 0.0 | 0.0 | 0.00 | 0.00 | 0.00 | 28 | 1012.6 |
| 20260903114520 | 48 | 103 | 0.0 | 0.0 | 0.00 | 0.00 | 0.00 | 28 | 1012.6 |
| 20260903113019 | 48 | 103 | 0.0 | 0.0 | 0.00 | 0.00 | 0.00 | 27 | 1012.8 |
| 20260903111513 | 48 | 103 | 0.0 | 0.0 | 0.00 | 0.00 | 0.00 | 26 | 1013.0 |
| 20260903110012 | 47 | 103 | 0.0 | 0.0 | 0.00 | 0.00 | 0.00 | 27 | 1013.0 |
| 20260903104511 | 47 | 103 | 0.0 | 0.0 | 0.00 | 0.00 | 0.00 | 27 | 1013.2 |
| 20260903103010 | 47 | 103 | 0.0 | 0.0 | 0.00 | 0.00 | 0.00 | 28 | 1013.1 |
| 20260903101509 | 47 | 103 | 0.0 | 0.0 | 0.00 | 0.00 | 0.00 | 29 | 1013.1 |
| 20260903100018 | 47 | 103 | 0.0 | 0.0 | 0.00 | 0.00 | 0.00 | 30 | 1013.4 |
| 20260903094502 | 47 | 103 | 0.0 | 0.0 | 0.00 | 0.00 | 0.00 | 31 | 1013.5 |
| 20260903093103 | 48 | 103 | 0.0 | 0.0 | 0.00 | 0.00 | 0.00 | 32 | 1013.6 |
| 20260903091603 | 48 | 103 | 0.0 | 0.0 | 0.00 | 0.00 | 0.00 | 32 | 1013.7 |
| 20260903090055 | 48 | 103 | 0.0 | 0.0 | 0.00 | 0.00 | 0.00 | 32 | 1013.7 |
| 20260903084552 | 49 | 103 | 0.0 | 0.0 | 0.00 | 0.00 | 0.00 | 31 | 1013.8 |
| 20260903083057 | 49 | 103 | 0.0 | 0.0 | 0.00 | 0.00 | 0.00 | 31 | 1014.0 |
| 20260903081550 | 49 | 103 | 0.0 | 0.0 | 0.00 | 0.00 | 0.00 | 30 | 1014.0 |
| 20260903080045 | 50 | 103 | 0.0 | 0.0 | 0.00 | 0.00 | 0.00 | 32 | 1014.1 |
| 20260903074544 | 50 | 103 | 0.0 | 0.0 | 0.00 | 0.00 | 0.00 | 37 | 1014.2 |
| 20260903073046 | 51 | 103 | 0.0 | 0.0 | 0.00 | 0.00 | 0.00 | 43 | 1014.2 |
| 20260903071538 | 51 | 103 | 0.0 | 0.0 | 0.00 | 0.00 | 0.00 | 41 | 1014.2 |
| 20260903070035 | 51 | 103 | 0.0 | 0.0 | 0.00 | 0.00 | 0.00 | 41 | 1014.1 |
| 20260903064535 | 51 | 103 | 0.0 | 0.0 | 0.00 | 0.00 | 0.00 | 36 | 1014.1 |
| 20260903063034 | 51 | 103 | 0.0 | 0.0 | 0.00 | 0.00 | 0.00 | 42 | 1014.1 |
| 20260903061535 | 51 | 103 | 0.0 | 0.0 | 0.00 | 0.00 | 0.00 | 49 | 1014.1 |
| 20260903060032 | 51 | 55 | 0.0 | 0.0 | 0.00 | 0.00 | 0.00 | 47 | 1013.9 |
| 20260903054533 | 51 | 345 | 0.0 | 0.0 | 0.00 | 0.00 | 0.00 | 45 | 1013.9 |
| 20260903053032 | 52 | 345 | 0.0 | 0.0 | 0.00 | 0.00 | 0.00 | 51 | 1014.0 |
| 20260903051531 | 53 | 345 | 0.0 | 0.0 | 0.00 | 0.00 | 0.00 | 56 | 1014.1 |
| 20260903050030 | 54 | 345 | 0.0 | 0.0 | 0.00 | 0.00 | 0.00 | 61 | 1014.0 |
| 20260903044530 | 54 | 345 | 0.0 | 0.0 | 0.00 | 0.00 | 0.00 | 62 | 1014.1 |
| 20260903043029 | 55 | 345 | 0.0 | 0.0 | 0.00 | 0.00 | 0.00 | 61 | 1014.1 |
| 20260903041529 | 56 | 345 | 0.0 | 0.0 | 0.00 | 0.00 | 0.00 | 60 | 1014.0 |
| 20260903040029 | 57 | 345 | 0.0 | 0.0 | 0.00 | 0.00 | 0.00 | 55 | 1013.8 |
| 20260903034526 | 59 | 345 | 0.0 | 0.0 | 0.00 | 0.00 | 0.00 | 54 | 1013.6 |
| 20260903033026 | 61 | 345 | 0.0 | 0.0 | 0.00 | 0.00 | 0.00 | 54 | 1013.6 |
| 20260903031525 | 63 | 345 | 0.0 | 0.0 | 0.00 | 0.00 | 0.00 | 53 | 1013.4 |
| 20260903030029 | 64 | 345 | 0.0 | 0.0 | 0.00 | 0.00 | 0.00 | 48 | 1013.3 |
| 20260903024525 | 66 | 345 | 0.0 | 0.0 | 0.00 | 0.00 | 0.00 | 48 | 1013.3 |
| 20260903023024 | 67 | 345 | 0.0 | 0.0 | 0.00 | 0.00 | 0.00 | 47 | 1013.2 |
| 20260903021523 | 69 | 308 | 0.0 | 0.0 | 0.00 | 0.00 | 0.00 | 42 | 1013.1 |
| 20260903020035 | 70 | 309 | 0.0 | 0.0 | 0.00 | 0.00 | 0.00 | 39 | 1013.2 |
| 20260903014524 | 70 | 306 | 0.0 | 0.0 | 0.00 | 0.00 | 0.00 | 35 | 1013.2 |
| 20260903013020 | 71 | 300 | 0.0 | 0.0 | 0.00 | 0.00 | 0.00 | 35 | 1013.3 |
| 20260903011520 | 72 | 272 | 0.0 | 0.0 | 0.00 | 0.00 | 0.00 | 34 | 1013.3 |
| 20260903010018 | 73 | 322 | 0.0 | 6.0 | 0.00 | 0.00 | 0.00 | 33 | 1013.4 |
| 20260903004517 | 74 | 294 | 0.0 | 9.0 | 0.00 | 0.00 | 0.00 | 33 | 1013.4 |
| 20260903003016 | 75 | 339 | 0.0 | 10.0 | 0.00 | 0.00 | 0.00 | 32 | 1013.4 |
| 20260903001514 | 76 | 304 | 3.0 | 11.0 | 0.00 | 0.00 | 0.00 | 29 | 1013.4 |
| 20260903000013 | 77 | 327 | 1.0 | 10.0 | 0.00 | 0.00 | 0.00 | 27 | 1013.4 |
| 20260902234512 | 77 | 208 | 0.0 | 14.0 | 0.00 | 0.00 | 0.00 | 22 | 1013.4 |
| 20260902233012 | 78 | 305 | 0.0 | 12.0 | 0.00 | 0.00 | 0.00 | 22 | 1013.6 |
| 20260902231508 | 78 | 212 | 1.0 | 12.0 | 0.00 | 0.00 | 0.00 | 21 | 1013.6 |
| 20260902230007 | 79 | 319 | 4.0 | 15.0 | 0.00 | 0.00 | 0.00 | 23 | 1013.7 |
| 20260902224506 | 79 | 264 | 0.0 | 16.0 | 0.00 | 0.00 | 0.00 | 23 | 1013.7 |
| 20260902223003 | 80 | 317 | 1.0 | 13.0 | 0.00 | 0.00 | 0.00 | 20 | 1013.9 |
| 20260902221502 | 81 | 294 | 2.0 | 11.0 | 0.00 | 0.00 | 0.00 | 21 | 1014.2 |